www.pogodaiklimat.ru

Погода и климат >> Архив погоды >> Россия >> Красноярский край >> Норильск


АРХИВ ПОГОДЫ в Норильске

Время (UTC), дата Ветер
(напр.,м/с)
 
Видим.   Явления Облачность Т
(С)
Тd
(С)
f
(%)
Тe
(С)
Тes
(С)
Комфортность P
(гПа)
Po
(гПа)
Тmin
(С)
Tmax
(С)
R
(мм)
R24
(мм)
S
(см)
03 13.05 З 2 50 км 8/0
[Cs]
-4.1 -7.1 80 -8 -3 по сезону 1022.5 1014.2
06 13.05 штиль 0 50 км 4/0 2000 м
[Ac lent Ci fib]
-1.6 -8.0 62 -2 +7 тепло 1021.6 1013.4
09 13.05 СВ 3 50 км 3/0
[Ci fib]
-1.3 -7.6 62 -6 -0 по сезону 1021.4 1013.2
12 13.05 ЮВ 1 50 км ясно -1.6 -8.0 62 -3 -1 тепло 1021.8 1013.6 -1.1
15 13.05 З 3 50 км ясно -5.2 -8.1 80 -11 -11 по сезону 1022.2 1013.8
18 13.05 СЗ 1 50 км ясно -10.2 -11.5 90 -13 -13 по сезону 1022.7 1014.2
21 13.05 штиль 0 50 км ясно -11.6 -12.9 90 -12 -12 по сезону 1023.8 1015.2
00 14.05 СЗ 2 50 км ясно -10.9 -12.9 85 -15 -13 по сезону 1024.5 1015.9 -11.7 76
03 14.05 СЗ 2 50 км 3/0
[Ci fib]
-7.1 -9.6 82 -11 -5 по сезону 1025.2 1016.7
06 14.05 СЗ 4 50 км ясно -4.2 -7.2 80 -10 -4 по сезону 1024.9 1016.5
09 14.05 З 2 50 км ясно -0.8 -5.7 69 -4 +3 по сезону 1024.4 1016.1
12 14.05 З 4 50 км ясно -1.6 -3.6 86 -7 -6 по сезону 1024.2 1015.9 -0.8
15 14.05 З 3 50 км ясно -3.8 -6.0 85 -9 -9 по сезону 1023.9 1015.5
18 14.05 З 4 50 км ясно -6.3 -8.2 86 -13 -13 по сезону 1023.2 1014.8
21 14.05 З 3 50 км ясно -8.9 -10.9 85 -15 -15 по сезону 1023.6 1015.1
00 15.05 СЗ 2 50 км ясно -8.5 -10.4 86 -13 -11 по сезону 1024.2 1015.7 -9.0 75
03 15.05 З 3 50 км 3/0
[Ci fib]
-7.5 -11.9 71 -13 -8 по сезону 1024.6 1016.1
06 15.05 З 3 50 км 4/0
[Ci fib]
-3.4 -6.2 81 -9 -1 по сезону 1024.0 1015.6
09 15.05 З 8-11
{12}
50 км 3/0
[Ci]
-3.5 -6.3 81 -12 -11 прохладно 1024.0 1015.6
12 15.05 З 8-12
{13}
50 км 3/0
[Ci fib]
-4.9 -6.2 91 -14 -13 холодно 1023.8 1015.4 -3.0
15 15.05 З 8-12
{14}
50 км 3/0
[Ci fib]
-7.4 -9.1 88 -17 -17 холодно 1024.1 1015.6
18 15.05 З 6
{13}
50 км 3/0
[Ci fib]
-9.9 -11.1 91 -18 -18 холодно 1024.2 1015.6
21 15.05 З 4
{10}
50 км 3/0
[Ci fib]
-11.7 -13.0 90 -19 -19 холодно 1024.4 1015.8
00 16.05 СЗ 3 50 км 3/0
[Ci fib]
-11.3 -12.6 90 -17 -16 прохладно 1024.8 1016.2 -11.7 73
03 16.05 СЗ 3 50 км 6/0
[Ci fib]
-10.3 -11.6 90 -16 -11 прохладно 1024.9 1016.3
06 16.05 С 2 50 км 4/0
[Ci fib]
-7.6 -9.0 90 -12 -3 прохладно 1024.5 1016.0
09 16.05 С 1 50 км 3/0
[Ci fib]
-4.6 -7.0 83 -7 +1 по сезону 1024.6 1016.2
12 16.05 СЗ 3 50 км 3/0
[Ci fib]
-3.8 -6.3 83 -9 -7 по сезону 1024.3 1015.9 -3.7
15 16.05 СЗ 1 50 км ясно -6.0 -7.9 86 -8 -8 по сезону 1024.0 1015.5
18 16.05 штиль 0 50 км ясно -9.6 -9.9 98 -10 -10 по сезону 1023.5 1015.0
21 16.05 ЮВ 1 50 км ясно -13.3 -13.3 100 -16 -15 прохладно 1023.6 1015.0
00 17.05 ЮВ 2 50 км ясно -7.3 -9.0 88 -12 -10 по сезону 1023.5 1015.0 -13.4 73
03 17.05 ЮВ 4 50 км ясно -3.4 -7.3 74 -9 -5 по сезону 1014.6
06 17.05 В 5 50 км ясно -1.2 -7.0 65 -7 -2 по сезону 1022.6 1014.4
09 17.05 ЮВ 2 50 км ясно +1.0 -5.3 63 -2 +5 тепло 1023.3 1015.1
12 17.05 ЮВ 3 50 км ясно +1.2 -7.0 54 -3 -1 по сезону 1022.8 1014.8 +1.5
15 17.05 штиль 0 50 км ясно -0.2 -7.1 60 -1 -1 тепло 1023.0 1014.8
18 17.05 штиль 0 50 км ясно -6.0 -8.7 81 -7 -7 по сезону 1023.3 1014.9
21 17.05 В 4 50 км ясно -5.2 -9.7 71 -11 -11 по сезону 1022.9 1014.5
00 18.05 ЮВ 4 50 км 3/0
[Ci fib]
-3.6 -8.8 67 -9 -8 по сезону 1022.9 1014.6 -6.1 72
03 18.05 ЮВ 4 50 км ясно -0.8 -6.8 64 -6 -1 по сезону 1022.5 1014.3
06 18.05 ЮВ 3 50 км ясно +1.2 -5.0 63 -3 +5 по сезону 1021.8 1013.7
09 18.05 ЮВ 5 50 км ясно +2.1 -5.2 58 -3 +1 по сезону 1021.0 1012.9
12 18.05 ЮВ 3 50 км 3/0 2000 м
[Ac trans]
+2.3 -4.0 63 -1 0 тепло 1020.4 1012.3 +2.5
15 18.05 ЮВ 2 50 км 8/4 600 м
[Sc Ac trans]
+1.6 -3.5 69 -1 -1 тепло 1019.7 1011.6
18 18.05 Ю 2 50 км 6/4 600 м
[Sc Ac trans]
-1.2 -6.3 68 -5 -5 по сезону 1018.7 1010.5
21 18.05 ЮВ 2 50 км 8/5 600 м
[Sc Ac lent Ci]
-8.2 -8.1 100 -13 -13 по сезону 1018.0 1009.7
00 19.05 ЮВ 4 50 км 8/0
[Ci]
-0.2 -6.4 63 -5 -4 тепло 1017.0 1008.8 -2.8 67
03 19.05 ЮВ 4 50 км 3/0
[Ci fib]
+1.7 -4.8 62 -3 +2 тепло 1015.3 1007.2
06 19.05 ЮВ 3 50 км ясно +3.9 -3.3 59 +1 +9 опасность
простуды
1014.0 1005.6
09 19.05 ЮВ 2 50 км ясно +5.3 -3.2 54 +3 +11 опасность
простуды
1012.7 1004.4
12 19.05 Ю 1 50 км 4/0
[Ci fib]
+5.9 -2.7 54 +5 +8 тепло 1011.4 1003.5 +6.0
15 19.05 СЗ 1 50 км 4/0
[Ci fib]
+1.2 -2.6 76 -0 -0 тепло 1010.8 1002.7
18 19.05 С 1 50 км 4/0
[Ac lent Ci fib]
-3.4 -6.2 81 -6 -6 по сезону 1009.3 1001.1
21 19.05 СЗ 3 50 км 3/0
[Ci fib]
-5.6 -8.2 82 -11 -11 по сезону 1007.5 999.2

 

Местоположение метеостанции Норильск (Красноярский край, Россия): широта 69.33 долгота 88.30 высота над уровнем моря 65 м.

В архиве по умолчанию представлена погода в Норильске за последнюю неделю. Архивные данные за месяц целиком и за предыдущие месяцы, начиная с января 2011 года, Вы можете получить, выбрав интересующий диапазон дат из раскрывающегося списка и нажав кнопку "Ввод!".


*Определитесь, кто Вы:
робот инопланетянин человек

Внимание! Время в таблицах - всемирное. Для получения местного времени необходимо прибавить поправку, которая равна 7 ч.

Смотрите также архив погоды в соседних городах и на ближайших метеорологических станциях:

Погода в Потапово (Красноярский край, Россия) (110 км)
Погода в Снежногорске (Красноярский край, Россия) (138 км)
Погода в Крестах Таймырских (Красноярский край, Россия) (181 км)
Погода в Горбиачине (Красноярский край, Россия) (207 км)
Погода в Карауле (Красноярский край, Россия) (215 км)
Погода в Игарке (Красноярский край, Россия) (219 км)
Погода в Светлогорске (Красноярский край, Россия) (265 км)
Погода в Волочанке (Красноярский край, Россия) (297 км)
Погода в Курейке (Красноярский край, Россия) (321 км)
Погода в Советской Речке (Красноярский край, Россия) (336 км)

Пояснения к столбцам:

Ветер - указаны скорость ветра в м/с - средняя за 10 мин, порывы в срок и между сроками (в фигурных скобках) и направление, откуда дует ветер: С - северный, СВ - северо-восточный, В - восточный, ЮВ - юго-восточный, Ю - южный, ЮЗ - юго-западный, З - западный, СЗ - северо-западный.
Видимость - горизонтальная дальность видимости в метрах или километрах. При видимости от 1 до 10 км при отсутствии осадков обычно наблюдается дымка, при ухудшении видимости до 1 км и менее - туман. В сухую погоду видимость может ухудшаться дымом, пылью или мглою.
Явления - указаны атмосферные явления, наблюдавшиеся в срок или в последний час перед сроком; фигурными скобками обозначены явления, наблюдавшиеся между сроками (за 1-3 часа до срока); квадратными скобками обозначены град или гололедные отложения с указанием их диаметра в мм.
Облачность - указаны через наклонную черту общая и нижняя облачность в баллах и высота нижней границы облаков в метрах; квадратными скобками обозначены формы облаков: Ci - перистые, Cs - перисто-слоистые, Cc - перисто-кучевые, Ac - высококучевые, As - высокослоистые, Sc - слоисто-кучевые, Ns - слоисто-дождевые, Cu - кучевые, Cb - кучево-дождевые. Подробнее классификацию облаков см. в Атласе облаков (PDF).
T - Температура воздуха - температура, измеренная на высоте 2 м над землей.
Td - Температура точки росы - температура, при понижении до которой содержащийся в воздухе водяной пар достигнет насыщения.
f - Относительная влажность воздуха - влажноcть воздуха, измеренная на высоте 2 м над землей.
Te - Эффективная температура - температура, которую ощущает одетый по сезону человек в тени. Характеристика душности погоды. При расчете учитывается влияние влажности воздуха и скорости ветра на теплоощущения человека.
Tes - Эффективная температура на солнце - температура, которую ощущает человек, с поправкой на солнечный нагрев. Характеристика знойности погоды. Зависит от высоты солнца над горизонтом, облачности и скорости ветра. Ночью, в пасмурную погоду, а также при ветре 12 м/с и более поправка равна нулю.
P - Атмосферное давление - приведенное к уровню моря атмосферное давление.
Po - Атмосферное давление - измеренное на уровне метеостанции атмосферное давление.
Tmin - Минимальная температура - минимум температуры воздуха на высоте 2 м над землей.
Tmax - Максимальная температура - максимум температуры воздуха на высоте 2 м над землей.
R - Количество осадков - Количество выпавших осадков за период времени, мм. При наведении курсора мыши на число - период времени, за который выпало указанное количество осадков.
R24 - Количество осадков - Количество выпавших осадков за 24 часа, мм.
S - Снежный покров - Высота снежного покрова, см. При наведении курсора мыши на число - состояние снежного покрова и степень покрытия местности в баллах.